Hourly Data Report for January 22, 2022

BANCROFT AUTO
ONTARIO
Current Station Operator: ECCC - MSC

45°04'17.000" N
77°52'44.000" W
330.70 m
616I001
71294
WRK

Download Data

Hourly Data (January 2022)
Hourly Data Report for January 22, 2022
TIME
LST
Temp Definition
°C
Dew Point Definition
°C
Rel Hum Definition
%
Precip. Amount Definition
mm

Wind Dir Definition
10's deg

Wind Spd Definition
km/h
Visibility Definition
km
Stn Press Definition
kPa
Hmdx Definition


Wind Chill Definition


Weather Definition


00:00 -31.6 -34.5 76 0.0   0   99.19     LegendNANA
01:00 -32.5 -35.5 75 0.0   0   99.13     LegendNANA
02:00 -33.3 -36.3 74 0.0   0   99.09     LegendNANA
03:00 -30.0 -32.7 77 0.0   0   98.96     LegendNANA
04:00 -28.3 -31.1 77 0.0 0 1   98.87   -29 LegendNANA
05:00 -26.4 -29.3 77 0.0 0 1   98.80   -27 LegendNANA
06:00 -24.6 -27.3 78 0.0 26 1   98.71   -26 LegendNANA
07:00 -23.5 -26.1 79 0.0 20 2   98.66   -25 LegendNANA
08:00 -22.2 -24.7 80 0.0 32 3   98.61   -25 LegendNANA
09:00 -17.3 -19.2 85 0.0 13 2   98.43   -19 LegendNANA
10:00 -15.1 -17.5 82 0.0 14 4   98.31   -18 LegendNANA
11:00 -12.0 -15.3 77 0.0 18 8   98.23   -17 LegendNANA
12:00 -10.4 -14.0 75 0.0 18 9   98.00   -15 LegendNANA
13:00 -9.4 -13.2 74 0.0 17 8   97.80   -14 LegendNANA
14:00 -8.4 -11.8 77 0.0 18 9   97.61   -13 LegendNANA
15:00 -7.6 -11.8 72 0.0 19 10   97.46   -12 LegendNANA
16:00 -7.8 -11.3 76 0.0 17 8   97.30   -12 LegendNANA
17:00 -7.8 -10.1 84 0.3 20 9   97.25   -12 LegendNANA
18:00 -8.0 -9.7 88 0.5 19 8   97.16   -12 LegendNANA
19:00 -7.9 -9.5 88 0.3 19 8   97.06   -12 LegendNANA
20:00 -7.4 -9.6 85 0.0 21 9   96.97   -12 LegendNANA
21:00 -7.5 -9.8 83 0.0 21 10   96.90   -12 LegendNANA
22:00 -7.1 -9.8 81 0.1 22 10   96.85   -12 LegendNANA
23:00 -7.5 -9.7 85 0.0 21 10   96.83   -12 LegendNANA

Notes on Data Quality.

Legend

  • E = Estimated
  • M = Missing
  • NA = Not Available*
  • [empty] = Indicates an unobserved value
Date modified: